N972HJ KSBP-KSBA

Flight info

Callsign N972HJ
Flight time 0h 34m
Altitude 11000
Route MQO GVO HABUT
Aircraft B58T/L-SDFGRY/C

Departure

Time 2026-04-22 04:53
Airport San Luis County Regional Airport (KSBP)

Arrival

Time 2026-04-22 05:27
Airport Santa Barbara Municipal Airport (KSBA)
Time Latitude Longitude Altitude Speed Heading
2026-04-22 04:34 35.23779 -120.64511 179 ft 0 kts 270°
2026-04-22 04:50 35.23779 -120.64512 179 ft 0 kts 268°
2026-04-22 04:50 35.23781 -120.64532 179 ft 7 kts 285°
2026-04-22 04:50 35.23782 -120.64536 179 ft 0 kts 300°
2026-04-22 04:51 35.23804 -120.64543 179 ft 9 kts
2026-04-22 04:51 35.23809 -120.64479 179 ft 13 kts 122°
2026-04-22 04:51 35.23754 -120.64394 179 ft 12 kts 120°
2026-04-22 04:51 35.23742 -120.64298 180 ft 12 kts 99°
2026-04-22 04:52 35.23695 -120.64228 180 ft 8 kts 204°
2026-04-22 04:52 35.23686 -120.64445 180 ft 66 kts 269°
2026-04-22 04:52 35.23689 -120.65300 261 ft 122 kts 270°
2026-04-22 04:52 35.23702 -120.66419 561 ft 138 kts 271°
2026-04-22 04:53 35.23991 -120.67546 962 ft 141 kts 304°
2026-04-22 04:53 35.24610 -120.68476 1256 ft 138 kts 300°
2026-04-22 04:53 35.24750 -120.69580 1611 ft 126 kts 269°
2026-04-22 04:53 35.24667 -120.70618 1946 ft 121 kts 266°
2026-04-22 04:54 35.24642 -120.71647 2240 ft 120 kts 270°
2026-04-22 04:54 35.24673 -120.72668 2500 ft 122 kts 272°
2026-04-22 04:54 35.24611 -120.73709 2720 ft 125 kts 248°
2026-04-22 04:54 35.23944 -120.74330 3055 ft 126 kts 187°
2026-04-22 04:55 35.23176 -120.73838 3290 ft 145 kts 122°
2026-04-22 04:55 35.22639 -120.72849 3634 ft 133 kts 143°
2026-04-22 04:55 35.21817 -120.72521 4031 ft 124 kts 173°
2026-04-22 04:55 35.21060 -120.71991 4404 ft 127 kts 148°
2026-04-22 04:56 35.20349 -120.71359 4768 ft 126 kts 149°
2026-04-22 04:56 35.19645 -120.70708 5124 ft 127 kts 149°
2026-04-22 04:56 35.18938 -120.70059 5476 ft 127 kts 149°
2026-04-22 04:56 35.18236 -120.69404 5829 ft 128 kts 148°
2026-04-22 04:57 35.17528 -120.68743 6184 ft 126 kts 148°
2026-04-22 04:57 35.16844 -120.68101 6535 ft 122 kts 148°
2026-04-22 04:57 35.16175 -120.67476 6864 ft 121 kts 148°
2026-04-22 04:57 35.15499 -120.66846 7206 ft 124 kts 150°
2026-04-22 04:58 35.14802 -120.66196 7558 ft 126 kts 150°
2026-04-22 04:58 35.14111 -120.65548 7898 ft 124 kts 150°
2026-04-22 04:58 35.13434 -120.64914 8241 ft 121 kts 152°
2026-04-22 04:58 35.12735 -120.64269 8420 ft 137 kts 152°
2026-04-22 04:59 35.11926 -120.63523 8444 ft 156 kts 150°
2026-04-22 04:59 35.11034 -120.62687 8444 ft 166 kts 149°
2026-04-22 04:59 35.10112 -120.61819 8430 ft 163 kts 149°
2026-04-22 04:59 35.09247 -120.60999 8425 ft 152 kts 150°
2026-04-22 05:00 35.08440 -120.60244 8412 ft 141 kts 151°
2026-04-22 05:00 35.07682 -120.59535 8414 ft 134 kts 151°
2026-04-22 05:00 35.06956 -120.58861 8415 ft 129 kts 152°
2026-04-22 05:00 35.06255 -120.58207 8418 ft 125 kts 152°
2026-04-22 05:01 35.05574 -120.57573 8413 ft 122 kts 152°
2026-04-22 05:01 35.04913 -120.56958 8420 ft 117 kts 152°
2026-04-22 05:01 35.04248 -120.56347 8435 ft 126 kts 153°
2026-04-22 05:01 35.03512 -120.55672 8450 ft 139 kts 151°
2026-04-22 05:02 35.02716 -120.54932 8451 ft 148 kts 150°
2026-04-22 05:02 35.01881 -120.54153 8449 ft 154 kts 150°
2026-04-22 05:02 35.01041 -120.53363 8436 ft 154 kts 149°
2026-04-22 05:02 35.00192 -120.52570 8353 ft 155 kts 149°
2026-04-22 05:03 34.99334 -120.51774 8107 ft 154 kts 149°
2026-04-22 05:03 34.98481 -120.50982 7855 ft 153 kts 149°
2026-04-22 05:03 34.97631 -120.50192 7609 ft 154 kts 148°
2026-04-22 05:03 34.96775 -120.49398 7370 ft 156 kts 148°
2026-04-22 05:04 34.95910 -120.48593 7127 ft 157 kts 148°
2026-04-22 05:04 34.95048 -120.47791 6878 ft 154 kts 147°
2026-04-22 05:04 34.94202 -120.47004 6639 ft 151 kts 146°
2026-04-22 05:04 34.93387 -120.46245 6536 ft 142 kts 146°
2026-04-22 05:05 34.92610 -120.45520 6529 ft 139 kts 147°
2026-04-22 05:05 34.91839 -120.44808 6530 ft 138 kts 147°
2026-04-22 05:05 34.91087 -120.44111 6528 ft 137 kts 147°
2026-04-22 05:05 34.90327 -120.43407 6531 ft 137 kts 147°
2026-04-22 05:06 34.89570 -120.42706 6527 ft 137 kts 147°
2026-04-22 05:06 34.88815 -120.42005 6531 ft 136 kts 147°
2026-04-22 05:06 34.88061 -120.41306 6529 ft 136 kts 147°
2026-04-22 05:06 34.87564 -120.40845 6527 ft 136 kts 147°
2026-04-22 05:07 34.86814 -120.40150 6530 ft 135 kts 147°
2026-04-22 05:07 34.86066 -120.39458 6533 ft 134 kts 147°
2026-04-22 05:07 34.85321 -120.38768 6532 ft 135 kts 147°
2026-04-22 05:07 34.84580 -120.38080 6530 ft 133 kts 147°
2026-04-22 05:08 34.83842 -120.37397 6535 ft 133 kts 147°
2026-04-22 05:08 34.83104 -120.36716 6528 ft 133 kts 147°
2026-04-22 05:08 34.82366 -120.36033 6524 ft 133 kts 147°
2026-04-22 05:08 34.81627 -120.35348 6529 ft 134 kts 147°
2026-04-22 05:09 34.80886 -120.34664 6535 ft 134 kts 147°
2026-04-22 05:09 34.80142 -120.33975 6533 ft 134 kts 147°
2026-04-22 05:09 34.79398 -120.33288 6534 ft 134 kts 147°
2026-04-22 05:09 34.78662 -120.32606 6531 ft 134 kts 147°
2026-04-22 05:10 34.77916 -120.31919 6528 ft 134 kts 147°
2026-04-22 05:10 34.77162 -120.31221 6533 ft 134 kts 147°
2026-04-22 05:10 34.76420 -120.30535 6535 ft 134 kts 147°
2026-04-22 05:10 34.75688 -120.29860 6532 ft 134 kts 147°
2026-04-22 05:11 34.74939 -120.29169 6535 ft 133 kts 147°
2026-04-22 05:11 34.74209 -120.28495 6532 ft 133 kts 147°
2026-04-22 05:11 34.73471 -120.27814 6532 ft 133 kts 147°
2026-04-22 05:11 34.72736 -120.27135 6533 ft 132 kts 147°
2026-04-22 05:12 34.72008 -120.26464 6531 ft 131 kts 147°
2026-04-22 05:12 34.71281 -120.25793 6530 ft 131 kts 147°
2026-04-22 05:12 34.70553 -120.25124 6523 ft 131 kts 147°
2026-04-22 05:12 34.69817 -120.24445 6434 ft 138 kts 147°
2026-04-22 05:13 34.69019 -120.23713 6196 ft 144 kts 147°
2026-04-22 05:13 34.68221 -120.22981 5954 ft 143 kts 147°
2026-04-22 05:13 34.67427 -120.22252 5699 ft 143 kts 146°
2026-04-22 05:13 34.66642 -120.21519 5452 ft 142 kts 147°
2026-04-22 05:14 34.65855 -120.20796 5198 ft 141 kts 147°
2026-04-22 05:14 34.65068 -120.20073 4941 ft 142 kts 146°
2026-04-22 05:14 34.64291 -120.19358 4687 ft 141 kts 146°
2026-04-22 05:14 34.63515 -120.18642 4542 ft 137 kts 147°
2026-04-22 05:15 34.62764 -120.17949 4535 ft 134 kts 147°
2026-04-22 05:15 34.62025 -120.17270 4526 ft 132 kts 147°
2026-04-22 05:15 34.61303 -120.16606 4526 ft 129 kts 147°
2026-04-22 05:15 34.60588 -120.15949 4529 ft 128 kts 147°
2026-04-22 05:16 34.59877 -120.15297 4528 ft 128 kts 147°
2026-04-22 05:16 34.59172 -120.14649 4528 ft 127 kts 147°
2026-04-22 05:16 34.58471 -120.14006 4527 ft 126 kts 147°
2026-04-22 05:16 34.57776 -120.13367 4529 ft 125 kts 146°
2026-04-22 05:17 34.57080 -120.12727 4532 ft 125 kts 147°
2026-04-22 05:17 34.56384 -120.12090 4529 ft 126 kts 147°
2026-04-22 05:17 34.55691 -120.11456 4532 ft 123 kts 147°
2026-04-22 05:17 34.55011 -120.10829 4531 ft 124 kts 146°
2026-04-22 05:18 34.53628 -120.09561 4543 ft 125 kts 146°
2026-04-22 05:18 34.52930 -120.08912 4540 ft 127 kts 144°
2026-04-22 05:18 34.52227 -120.08300 4536 ft 123 kts 163°
2026-04-22 05:19 34.51499 -120.08494 4541 ft 109 kts 226°
2026-04-22 05:19 34.50810 -120.08943 4443 ft 121 kts 191°
2026-04-22 05:19 34.49933 -120.08984 4347 ft 130 kts 186°
2026-04-22 05:19 34.49011 -120.09003 4249 ft 135 kts 184°
2026-04-22 05:20 34.48058 -120.08995 4145 ft 139 kts 183°
2026-04-22 05:20 34.47081 -120.08980 4036 ft 142 kts 182°
2026-04-22 05:20 34.46084 -120.08957 3917 ft 144 kts 182°
2026-04-22 05:20 34.45084 -120.08937 3784 ft 144 kts 183°
2026-04-22 05:21 34.44084 -120.08916 3658 ft 143 kts 183°
2026-04-22 05:21 34.43096 -120.08797 3527 ft 146 kts 160°
2026-04-22 05:21 34.42380 -120.07942 3412 ft 149 kts 114°
2026-04-22 05:21 34.42268 -120.06714 3288 ft 148 kts 86°
2026-04-22 05:22 34.42294 -120.05485 3153 ft 146 kts 87°
2026-04-22 05:22 34.42310 -120.04281 3024 ft 141 kts 87°
2026-04-22 05:22 34.42330 -120.03135 2992 ft 132 kts 86°
2026-04-22 05:22 34.42346 -120.02066 2985 ft 125 kts 86°
2026-04-22 05:23 34.42366 -120.00990 2878 ft 129 kts 85°
2026-04-22 05:23 34.42383 -119.99881 2790 ft 132 kts 87°
2026-04-22 05:23 34.42371 -119.98766 2704 ft 132 kts 90°
2026-04-22 05:23 34.42391 -119.97673 2712 ft 125 kts 82°
2026-04-22 05:24 34.42450 -119.96570 2469 ft 137 kts 85°
2026-04-22 05:24 34.42497 -119.95416 2238 ft 137 kts 85°
2026-04-22 05:24 34.42517 -119.94255 2002 ft 138 kts 88°
2026-04-22 05:24 34.42543 -119.93120 1757 ft 132 kts 84°
2026-04-22 05:25 34.42605 -119.92073 1472 ft 124 kts 82°
2026-04-22 05:25 34.42678 -119.91057 1173 ft 116 kts 88°
2026-04-22 05:25 34.42660 -119.90116 927 ft 109 kts 91°
2026-04-22 05:25 34.42666 -119.89207 713 ft 107 kts 88°
2026-04-22 05:26 34.42697 -119.88298 523 ft 108 kts 87°
2026-04-22 05:26 34.42718 -119.87392 348 ft 106 kts 88°
2026-04-22 05:26 34.42730 -119.86529 190 ft 97 kts 89°
2026-04-22 05:26 34.42748 -119.85756 94 ft 91 kts 89°
2026-04-22 05:27 34.42763 -119.84976 20 ft 88 kts 89°
2026-04-22 05:27 34.42773 -119.84374 13 ft 58 kts 88°
2026-04-22 05:27 34.42780 -119.83953 14 ft 42 kts 88°
2026-04-22 05:27 34.42787 -119.83640 12 ft 32 kts 88°
2026-04-22 05:28 34.42827 -119.83483 12 ft 14 kts 39°
2026-04-22 05:28 34.42896 -119.83478 12 ft 8 kts 316°
2026-04-22 05:28 34.42943 -119.83531 12 ft 14 kts 359°
2026-04-22 05:28 34.43075 -119.83534 12 ft 23 kts 358°
2026-04-22 05:29 34.43194 -119.83540 12 ft 9 kts 353°
2026-04-22 05:29 34.43235 -119.83553 12 ft 2 kts 327°
2026-04-22 05:29 34.43239 -119.83574 12 ft 0 kts 247°